�S���n�������c�̃R�[�h,�s���{����,�s�撬����,�W�v���__�N����,�j��,���k����_�v,���k����_�{��,���k����_�ی����E�x��
330001,���R��,,2020/2/1,�y,,,
330001,���R��,,2020/2/2,��,,,
330001,���R��,,2020/2/3,��,328,,328
330001,���R��,,2020/2/4,��,171,11,160
330001,���R��,,2020/2/5,��,108,42,66
330001,���R��,,2020/2/6,��,76,33,43
330001,���R��,,2020/2/7,��,,,
330001,���R��,,2020/2/8,�y,,,
330001,���R��,,2020/2/9,��,90,41,49
330001,���R��,,2020/2/10,��,,,
330001,���R��,,2020/2/11,��,70,28,42
330001,���R��,,2020/2/12,��,56,23,33
330001,���R��,,2020/2/13,��,53,24,29
330001,���R��,,2020/2/14,��,,,
330001,���R��,,2020/2/15,�y,,,
330001,���R��,,2020/2/16,��,187,104,83
330001,���R��,,2020/2/17,��,144,49,95
330001,���R��,,2020/2/18,��,154,49,105
330001,���R��,,2020/2/19,��,106,45,61
330001,���R��,,2020/2/20,��,115,47,68
330001,���R��,,2020/2/21,��,,,
330001,���R��,,2020/2/22,�y,,,
330001,���R��,,2020/2/23,��,,,
330001,���R��,,2020/2/24,��,347,193,154
330001,���R��,,2020/2/25,��,242,88,154
330001,���R��,,2020/2/26,��,300,126,174
330001,���R��,,2020/2/27,��,350,164,186
330001,���R��,,2020/2/28,��,,,
330001,���R��,,2020/2/29,�y,,,
330001,���R��,,2020/3/1,��,606,312,294
330001,���R��,,2020/3/2,��,330,115,215
330001,���R��,,2020/3/3,��,285,125,160
330001,���R��,,2020/3/4,��,281,125,156
330001,���R��,,2020/3/5,��,271,119,152
330001,���R��,,2020/3/6,��,,,
330001,���R��,,2020/3/7,�y,,,
330001,���R��,,2020/3/8,��,624,391,233
330001,���R��,,2020/3/9,��,434,174,260
330001,���R��,,2020/3/10,��,319,159,160
330001,���R��,,2020/3/11,��,254,112,142
330001,���R��,,2020/3/12,��,221,101,120
330001,���R��,,2020/3/13,��,,,
330001,���R��,,2020/3/14,�y,,,
330001,���R��,,2020/3/15,��,386,224,162
330001,���R��,,2020/3/16,��,235,95,140
330001,���R��,,2020/3/17,��,199,75,124
330001,���R��,,2020/3/18,��,212,109,103
330001,���R��,,2020/3/19,��,,,
330001,���R��,,2020/3/20,��,,,
330001,���R��,,2020/3/21,�y,,,
330001,���R��,,2020/3/22,��,480,271,209
330001,���R��,,2020/3/23,��,428,195,233
330001,���R��,,2020/3/24,��,237,117,120
330001,���R��,,2020/3/25,��,239,128,111
330001,���R��,,2020/3/26,��,260,136,124
330001,���R��,,2020/3/27,��,,,
330001,���R��,,2020/3/28,�y,,,
330001,���R��,,2020/3/29,��,728,412,316
330001,���R��,,2020/3/30,��,524,265,259
330001,���R��,,2020/3/31,��,610,306,304
330001,���R��,,2020/4/1,��,567,297,270
330001,���R��,,2020/4/2,��,728,358,370
330001,���R��,,2020/4/3,��,,,
330001,���R��,,2020/4/4,�y,,,
330001,���R��,,2020/4/5,��,1402,722,680
330001,���R��,,2020/4/6,��,1011,458,553
330001,���R��,,2020/4/7,��,705,331,374
330001,���R��,,2020/4/8,��,766,392,374
330001,���R��,,2020/4/9,��,804,401,403
330001,���R��,,2020/4/10,��,,,
330001,���R��,,2020/4/11,�y,,,
330001,���R��,,2020/4/12,��,1354,669,685
330001,���R��,,2020/4/13,��,959,463,496
330001,���R��,,2020/4/14,��,718,341,377
330001,���R��,,2020/4/15,��,731,368,363
330001,���R��,,2020/4/16,��,784,376,408
330001,���R��,,2020/4/17,��,,,
330001,���R��,,2020/4/18,�y,,,
330001,���R��,,2020/4/19,��,1519,786,733
330001,���R��,,2020/4/20,��,904,395,509
330001,���R��,,2020/4/21,��,669,298,371
330001,���R��,,2020/4/22,��,604,247,357
330001,���R��,,2020/4/23,��,614,254,360
330001,���R��,,2020/4/24,��,,,
330001,���R��,,2020/4/25,�y,,,
330001,���R��,,2020/4/26,��,1087,412,675
330001,���R��,,2020/4/27,��,882,404,478
330001,���R��,,2020/4/28,��,,,
330001,���R��,,2020/4/29,��,890,372,518
330001,���R��,,2020/4/30,��,627,194,433
330001,���R��,,2020/5/1,��,619,201,418
330001,���R��,,2020/5/2,�y,321,143,178
330001,���R��,,2020/5/3,��,280,142,138
330001,���R��,,2020/5/4,��,295,146,149
330001,���R��,,2020/5/5,��,279,149,130
330001,���R��,,2020/5/6,��,342,164,178
330001,���R��,,2020/5/7,��,737,206,531
330001,���R��,,2020/5/8,��,589,153,436
330001,���R��,,2020/5/9,�y,395,142,253
330001,���R��,,2020/5/10,��,270,129,141
330001,���R��,,2020/5/11,��,689,175,514
330001,���R��,,2020/5/12,��,591,126,465
330001,���R��,,2020/5/13,��,564,127,437
330001,���R��,,2020/5/14,��,390,114,276
330001,���R��,,2020/5/15,��,422,113,309
330001,���R��,,2020/5/16,�y,215,102,113
330001,���R��,,2020/5/17,��,179,86,93
330001,���R��,,2020/5/18,��,495,102,393
330001,���R��,,2020/5/19,��,447,95,352
330001,���R��,,2020/5/20,��,445,93,352
330001,���R��,,2020/5/21,��,396,86,310
330001,���R��,,2020/5/22,��,578,68,510
330001,���R��,,2020/5/23,�y,256,58,198
330001,���R��,,2020/5/24,��,150,69,81
330001,���R��,,2020/5/25,��,200,85,115
330001,���R��,,2020/5/26,��,168,78,90
330001,���R��,,2020/5/27,��,147,57,90
330001,���R��,,2020/5/28,��,156,74,82
330001,���R��,,2020/5/29,��,172,67,105
330001,���R��,,2020/5/30,�y,115,75,40
330001,���R��,,2020/5/31,��,85,58,27
330001,���R��,,2020/6/1,��,195,77,118
330001,���R��,,2020/6/2,��,144,61,83
330001,���R��,,2020/6/3,��,133,51,82
330001,���R��,,2020/6/4,��,187,83,104
330001,���R��,,2020/6/5,��,193,84,109
330001,���R��,,2020/6/6,�y,90,54,36
330001,���R��,,2020/6/7,��,84,60,24
330001,���R��,,2020/6/8,��,218,93,125
330001,���R��,,2020/6/9,��,135,52,83
330001,���R��,,2020/6/10,��,149,63,86
330001,���R��,,2020/6/11,��,125,52,73
330001,���R��,,2020/6/12,��,96,37,59
330001,���R��,,2020/6/13,�y,83,48,35
330001,���R��,,2020/6/14,��,85,53,32
330001,���R��,,2020/6/15,��,150,54,96
330001,���R��,,2020/6/16,��,126,60,66
330001,���R��,,2020/6/17,��,106,39,67
330001,���R��,,2020/6/18,��,121,47,74
330001,���R��,,2020/6/19,��,110,49,61
330001,���R��,,2020/6/20,�y,65,41,24
330001,���R��,,2020/6/21,��,44,21,23
330001,���R��,,2020/6/22,��,143,62,81
330001,���R��,,2020/6/23,��,103,37,66
330001,���R��,,2020/6/24,��,129,57,72
330001,���R��,,2020/6/25,��,131,54,77
330001,���R��,,2020/6/26,��,129,54,75
330001,���R��,,2020/6/27,�y,72,49,23
330001,���R��,,2020/6/28,��,55,33,22
330001,���R��,,2020/6/29,��,126,45,81
330001,���R��,,2020/6/30,��,130,59,71
330001,���R��,,2020/7/1,��,103,43,60
330001,���R��,,2020/7/2,��,128,45,83
330001,���R��,,2020/7/3,��,147,62,85
330001,���R��,,2020/7/4,�y,68,46,22
330001,���R��,,2020/7/5,��,56,40,16
330001,���R��,,2020/7/6,��,126,39,87
330001,���R��,,2020/7/7,��,117,45,72
330001,���R��,,2020/7/8,��,134,55,79
330001,���R��,,2020/7/9,��,111,38,73
330001,���R��,,2020/7/10,��,128,55,73
330001,���R��,,2020/7/11,�y,97,62,35
330001,���R��,,2020/7/12,��,67,45,22
330001,���R��,,2020/7/13,��,172,57,115
330001,���R��,,2020/7/14,��,149,62,87
330001,���R��,,2020/7/15,��,258,123,135
330001,���R��,,2020/7/16,��,263,102,161
330001,���R��,,2020/7/17,��,261,110,151
330001,���R��,,2020/7/18,�y,209,128,81
330001,���R��,,2020/7/19,��,185,104,81
330001,���R��,,2020/7/20,��,432,165,267
330001,���R��,,2020/7/21,��,337,141,196
330001,���R��,,2020/7/22,��,355,136,219
330001,���R��,,2020/7/23,��,196,110,86
330001,���R��,,2020/7/24,��,240,138,102
330001,���R��,,2020/7/25,�y,339,155,184
330001,���R��,,2020/7/26,��,250,144,106
330001,���R��,,2020/7/27,��,491,165,326
330001,���R��,,2020/7/28,��,374,124,250
330001,���R��,,2020/7/29,��,341,138,203
330001,���R��,,2020/7/30,��,390,144,246
330001,���R��,,2020/7/31,��,317,132,185
330001,���R��,,2020/8/1,�y,229,137,92
330001,���R��,,2020/8/2,��,166,96,70
330001,���R��,,2020/8/3,��,348,128,220
330001,���R��,,2020/8/4,��,291,114,177
330001,���R��,,2020/8/5,��,324,135,189
330001,���R��,,2020/8/6,��,327,135,192
330001,���R��,,2020/8/7,��,348,132,216
330001,���R��,,2020/8/8,�y,196,110,86
330001,���R��,,2020/8/9,��,169,98,71
330001,���R��,,2020/8/10,��,242,128,114
330001,���R��,,2020/8/11,��,398,118,280
330001,���R��,,2020/8/12,��,262,98,164
330001,���R��,,2020/8/13,��,207,73,134
330001,���R��,,2020/8/14,��,240,81,159
330001,���R��,,2020/8/15,�y,163,93,70
330001,���R��,,2020/8/16,��,162,91,71
330001,���R��,,2020/8/17,��,290,118,172
330001,���R��,,2020/8/18,��,242,101,141
330001,���R��,,2020/8/19,��,242,110,132
330001,���R��,,2020/8/20,��,243,96,147
330001,���R��,,2020/8/21,��,243,89,154
330001,���R��,,2020/8/22,�y,131,81,50
330001,���R��,,2020/8/23,��,151,80,71
330001,���R��,,2020/8/24,��,191,86,105
330001,���R��,,2020/8/25,��,187,73,114
330001,���R��,,2020/8/26,��,169,74,95
330001,���R��,,2020/8/27,��,187,86,101
330001,���R��,,2020/8/28,��,188,89,99
330001,���R��,,2020/8/29,�y,133,77,56
330001,���R��,,2020/8/30,��,102,65,37
330001,���R��,,2020/8/31,��,194,79,115
330001,���R��,,2020/9/1,��,125,50,75
330001,���R��,,2020/9/2,��,138,65,73
330001,���R��,,2020/9/3,��,167,54,113
330001,���R��,,2020/9/4,��,158,52,106
330001,���R��,,2020/9/5,�y,122,60,62
330001,���R��,,2020/9/6,��,88,57,31
330001,���R��,,2020/9/7,��,135,62,73
330001,���R��,,2020/9/8,��,140,69,71
330001,���R��,,2020/9/9,��,124,46,78
330001,���R��,,2020/9/10,��,145,61,84
330001,���R��,,2020/9/11,��,104,47,57
330001,���R��,,2020/9/12,�y,76,50,26
330001,���R��,,2020/9/13,��,66,48,18
330001,���R��,,2020/9/14,��,117,44,73
330001,���R��,,2020/9/15,��,85,40,45
330001,���R��,,2020/9/16,��,112,51,61
330001,���R��,,2020/9/17,��,94,38,56
330001,���R��,,2020/9/18,��,117,46,71
330001,���R��,,2020/9/19,�y,75,49,26
330001,���R��,,2020/9/20,��,78,53,25
330001,���R��,,2020/9/21,��,94,61,33
330001,���R��,,2020/9/22,��,92,49,43
330001,���R��,,2020/9/23,��,143,58,85
330001,���R��,,2020/9/24,��,98,42,56
330001,���R��,,2020/9/25,��,130,59,71
330001,���R��,,2020/9/26,�y,66,38,28
330001,���R��,,2020/9/27,��,73,52,21
330001,���R��,,2020/9/28,��,118,43,75
330001,���R��,,2020/9/29,��,125,64,61
330001,���R��,,2020/9/30,��,135,56,79
330001,���R��,,2020/10/1,��,100,42,58
330001,���R��,,2020/10/2,��,123,48,75
330001,���R��,,2020/10/3,�y,92,45,47
330001,���R��,,2020/10/4,��,69,46,23
330001,���R��,,2020/10/5,��,146,60,86
330001,���R��,,2020/10/6,��,104,51,53
330001,���R��,,2020/10/7,��,101,47,54
330001,���R��,,2020/10/8,��,96,43,53
330001,���R��,,2020/10/9,��,111,43,68
330001,���R��,,2020/10/10,�y,46,30,16
330001,���R��,,2020/10/11,��,63,52,11
330001,���R��,,2020/10/12,��,135,53,82
330001,���R��,,2020/10/13,��,101,37,64
330001,���R��,,2020/10/14,��,100,37,63
330001,���R��,,2020/10/15,��,112,48,64
330001,���R��,,2020/10/16,��,87,37,50
330001,���R��,,2020/10/17,�y,65,28,37
330001,���R��,,2020/10/18,��,66,34,32
330001,���R��,,2020/10/19,��,109,39,70
330001,���R��,,2020/10/20,��,114,42,72
330001,���R��,,2020/10/21,��,123,39,84
330001,���R��,,2020/10/22,��,146,62,84
330001,���R��,,2020/10/23,��,136,59,77
330001,���R��,,2020/10/24,�y,89,51,38
330001,���R��,,2020/10/25,��,77,48,29
330001,���R��,,2020/10/26,��,135,55,80
330001,���R��,,2020/10/27,��,138,58,80
330001,���R��,,2020/10/28,��,140,75,65
330001,���R��,,2020/10/29,��,175,80,95
330001,���R��,,2020/10/30,��,155,61,94
330001,���R��,,2020/10/31,�y,122,80,42
330001,���R��,,2020/11/1,��,92,59,33
330001,���R��,,2020/11/2,��,188,82,106
330001,���R��,,2020/11/3,��,88,53,35
330001,���R��,,2020/11/4,��,165,72,93
330001,���R��,,2020/11/5,��,176,66,110
330001,���R��,,2020/11/6,��,171,62,109
330001,���R��,,2020/11/7,�y,88,51,37
330001,���R��,,2020/11/8,��,95,67,28
330001,���R��,,2020/11/9,��,176,67,109
330001,���R��,,2020/11/10,��,131,55,76
330001,���R��,,2020/11/11,��,147,65,82
330001,���R��,,2020/11/12,��,234,66,168
330001,���R��,,2020/11/13,��,198,80,118
330001,���R��,,2020/11/14,�y,146,88,58
330001,���R��,,2020/11/15,��,126,80,46
330001,���R��,,2020/11/16,��,247,92,155
330001,���R��,,2020/11/17,��,215,68,147
330001,���R��,,2020/11/18,��,284,103,181
330001,���R��,,2020/11/19,��,289,113,176
330001,���R��,,2020/11/20,��,275,124,151
330001,���R��,,2020/11/21,�y,179,93,86
330001,���R��,,2020/11/22,��,190,103,87
330001,���R��,,2020/11/23,��,190,105,85
330001,���R��,,2020/11/24,��,286,114,172
330001,���R��,,2020/11/25,��,283,102,181
330001,���R��,,2020/11/26,��,239,98,141
330001,���R��,,2020/11/27,��,271,114,157
330001,���R��,,2020/11/28,�y,185,80,105
330001,���R��,,2020/11/29,��,154,81,73
330001,���R��,,2020/11/30,��,257,97,160
330001,���R��,,2020/12/1,��,220,82,138
330001,���R��,,2020/12/2,��,187,64,123
330001,���R��,,2020/12/3,��,211,101,110
330001,���R��,,2020/12/4,��,211,67,144
330001,���R��,,2020/12/5,�y,172,80,92
330001,���R��,,2020/12/6,��,152,86,66
330001,���R��,,2020/12/7,��,283,94,189
330001,���R��,,2020/12/8,��,229,93,136
330001,���R��,,2020/12/9,��,235,88,147
330001,���R��,,2020/12/10,��,269,89,180
330001,���R��,,2020/12/11,��,310,96,214
330001,���R��,,2020/12/12,�y,218,97,121
330001,���R��,,2020/12/13,��,220,96,124
330001,���R��,,2020/12/14,��,390,128,262
330001,���R��,,2020/12/15,��,268,93,175
330001,���R��,,2020/12/16,��,345,108,237
330001,���R��,,2020/12/17,��,290,103,187
330001,���R��,,2020/12/18,��,365,131,234
330001,���R��,,2020/12/19,�y,270,112,158
330001,���R��,,2020/12/20,��,265,158,107
330001,���R��,,2020/12/21,��,446,146,300
330001,���R��,,2020/12/22,��,346,115,231
330001,���R��,,2020/12/23,��,339,124,215
330001,���R��,,2020/12/24,��,313,117,196
330001,���R��,,2020/12/25,��,299,100,199
330001,���R��,,2020/12/26,�y,208,112,96
330001,���R��,,2020/12/27,��,200,105,95
330001,���R��,,2020/12/28,��,328,120,208
330001,���R��,,2020/12/29,��,270,125,145
330001,���R��,,2020/12/30,��,216,98,118
330001,���R��,,2020/12/31,��,244,139,105
330001,���R��,,2021/1/1,��,170,98,72
330001,���R��,,2021/1/2,�y,209,96,113
330001,���R��,,2021/1/3,��,211,116,95
330001,���R��,,2021/1/4,��,344,116,228
330001,���R��,,2021/1/5,��,395,146,249
330001,���R��,,2021/1/6,��,412,166,246
330001,���R��,,2021/1/7,��,349,106,243
330001,���R��,,2021/1/8,��,355,101,254
330001,���R��,,2021/1/9,�y,269,115,154
330001,���R��,,2021/1/10,��,203,98,105
330001,���R��,,2021/1/11,��,323,147,176
330001,���R��,,2021/1/12,��,392,133,259
330001,���R��,,2021/1/13,��,322,109,213
330001,���R��,,2021/1/14,��,306,110,196
330001,���R��,,2021/1/15,��,303,87,216
330001,���R��,,2021/1/16,�y,221,119,102
330001,���R��,,2021/1/17,��,172,82,90
330001,���R��,,2021/1/18,��,331,106,225
330001,���R��,,2021/1/19,��,243,96,147
330001,���R��,,2021/1/20,��,259,80,179
330001,���R��,,2021/1/21,��,237,79,158
330001,���R��,,2021/1/22,��,274,88,186
330001,���R��,,2021/1/23,�y,157,79,78
330001,���R��,,2021/1/24,��,134,61,73
330001,���R��,,2021/1/25,��,253,74,179
330001,���R��,,2021/1/26,��,237,75,162
330001,���R��,,2021/1/27,��,231,68,163
330001,���R��,,2021/1/28,��,214,81,133
330001,���R��,,2021/1/29,��,205,59,146
330001,���R��,,2021/1/30,�y,143,72,71
330001,���R��,,2021/1/31,��,156,64,92
330001,���R��,,2021/2/1,��,205,67,138
330001,���R��,,2021/2/2,��,152,51,101
330001,���R��,,2021/2/3,��,140,43,97
330001,���R��,,2021/2/4,��,149,60,89
330001,���R��,,2021/2/5,��,145,55,90
330001,���R��,,2021/2/6,�y,125,68,57
330001,���R��,,2021/2/7,��,127,49,78
330001,���R��,,2021/2/8,��,160,54,106
330001,���R��,,2021/2/9,��,135,38,97
330001,���R��,,2021/2/10,��,135,40,95
330001,���R��,,2021/2/11,��,101,48,53
330001,���R��,,2021/2/12,��,121,41,80
330001,���R��,,2021/2/13,�y,100,41,59
330001,���R��,,2021/2/14,��,88,43,45
330001,���R��,,2021/2/15,��,182,64,118
330001,���R��,,2021/2/16,��,107,34,73
330001,���R��,,2021/2/17,��,120,46,74
330001,���R��,,2021/2/18,��,83,30,53
330001,���R��,,2021/2/19,��,113,41,72
330001,���R��,,2021/2/20,�y,63,30,33
330001,���R��,,2021/2/21,��,74,41,33
330001,���R��,,2021/2/22,��,124,33,91
330001,���R��,,2021/2/23,��,89,47,42
330001,���R��,,2021/2/24,��,116,37,79
330001,���R��,,2021/2/25,��,91,31,60
330001,���R��,,2021/2/26,��,108,44,64
330001,���R��,,2021/2/27,�y,56,31,25
330001,���R��,,2021/2/28,��,75,39,36
330001,���R��,,2021/3/1,��,143,43,100
330001,���R��,,2021/3/2,��,115,34,81
330001,���R��,,2021/3/3,��,109,31,78
330001,���R��,,2021/3/4,��,105,37,68
330001,���R��,,2021/3/5,��,103,39,64
330001,���R��,,2021/3/6,�y,95,58,37
330001,���R��,,2021/3/7,��,117,56,61
330001,���R��,,2021/3/8,��,170,42,128
330001,���R��,,2021/3/9,��,145,37,108
330001,���R��,,2021/3/10,��,172,42,130
330001,���R��,,2021/3/11,��,152,58,94
330001,���R��,,2021/3/12,��,139,39,100
330001,���R��,,2021/3/13,�y,95,47,48
330001,���R��,,2021/3/14,��,77,46,31
330001,���R��,,2021/3/15,��,133,36,97
330001,���R��,,2021/3/16,��,104,29,75
330001,���R��,,2021/3/17,��,113,36,77
330001,���R��,,2021/3/18,��,113,38,75
330001,���R��,,2021/3/19,��,114,28,86
330001,���R��,,2021/3/20,�y,76,30,46
330001,���R��,,2021/3/21,��,74,37,37
330001,���R��,,2021/3/22,��,127,41,86
330001,���R��,,2021/3/23,��,94,27,67
330001,���R��,,2021/3/24,��,103,23,80
330001,���R��,,2021/3/25,��,132,44,88
330001,���R��,,2021/3/26,��,78,30,48
330001,���R��,,2021/3/27,�y,67,37,30
330001,���R��,,2021/3/28,��,76,49,27
330001,���R��,,2021/3/29,��,121,33,88
330001,���R��,,2021/3/30,��,152,49,103
330001,���R��,,2021/3/31,��,169,55,114
330001,���R��,,2021/4/1,��,131,51,80
330001,���R��,,2021/4/2,��,158,51,107
330001,���R��,,2021/4/3,�y,148,77,71
330001,���R��,,2021/4/4,��,119,65,54
330001,���R��,,2021/4/5,��,180,56,124
330001,���R��,,2021/4/6,��,159,42,117
330001,���R��,,2021/4/7,��,186,63,123
330001,���R��,,2021/4/8,��,187,63,124
330001,���R��,,2021/4/9,��,208,82,126
330001,���R��,,2021/4/10,�y,171,97,74
330001,���R��,,2021/4/11,��,141,79,62
330001,���R��,,2021/4/12,��,300,91,209
330001,���R��,,2021/4/13,��,231,74,157
330001,���R��,,2021/4/14,��,221,81,140
330001,���R��,,2021/4/15,��,261,82,179
330001,���R��,,2021/4/16,��,259,76,183
330001,���R��,,2021/4/17,�y,260,131,129
330001,���R��,,2021/4/18,��,236,135,101
330001,���R��,,2021/4/19,��,399,133,266
330001,���R��,,2021/4/20,��,368,120,248
330001,���R��,,2021/4/21,��,324,106,218
330001,���R��,,2021/4/22,��,362,100,262
330001,���R��,,2021/4/23,��,358,134,224
330001,���R��,,2021/4/24,�y,293,172,121
330001,���R��,,2021/4/25,��,261,149,112
330001,���R��,,2021/4/26,��,432,118,314
330001,���R��,,2021/4/27,��,621,150,471
330001,���R��,,2021/4/28,��,606,150,456
330001,���R��,,2021/4/29,��,421,181,240
330001,���R��,,2021/4/30,��,657,189,468
330001,���R��,,2021/5/1,�y,412,175,237
330001,���R��,,2021/5/2,��,396,192,204
330001,���R��,,2021/5/3,��,396,176,220
330001,���R��,,2021/5/4,��,462,195,267
330001,���R��,,2021/5/5,��,449,194,255
330001,���R��,,2021/5/6,��,740,273,467
330001,���R��,,2021/5/7,��,547,194,353
330001,���R��,,2021/5/8,�y,504,228,276
330001,���R��,,2021/5/9,��,549,261,288
330001,���R��,,2021/5/10,��,913,228,685
330001,���R��,,2021/5/11,��,816,208,608
330001,���R��,,2021/5/12,��,856,245,611
330001,���R��,,2021/5/13,��,1162,236,926
330001,���R��,,2021/5/14,��,973,231,742
330001,���R��,,2021/5/15,�y,699,231,468
330001,���R��,,2021/5/16,��,579,205,374
330001,���R��,,2021/5/17,��,972,241,731
330001,���R��,,2021/5/18,��,889,202,687
330001,���R��,,2021/5/19,��,848,211,637
330001,���R��,,2021/5/20,��,774,194,580
330001,���R��,,2021/5/21,��,856,186,670
330001,���R��,,2021/5/22,�y,619,163,456
330001,���R��,,2021/5/23,��,511,135,376
330001,���R��,,2021/5/24,��,877,173,704
330001,���R��,,2021/5/25,��,805,140,665
330001,���R��,,2021/5/26,��,752,120,632
330001,���R��,,2021/5/27,��,749,125,624
330001,���R��,,2021/5/28,��,758,98,660
330001,���R��,,2021/5/29,�y,478,112,366
330001,���R��,,2021/5/30,��,334,103,231
330001,���R��,,2021/5/31,��,763,79,684
330001,���R��,,2021/6/1,��,689,103,586
330001,���R��,,2021/6/2,��,628,71,557
330001,���R��,,2021/6/3,��,570,75,495
330001,���R��,,2021/6/4,��,526,72,454
330001,���R��,,2021/6/5,�y,258,61,197
330001,���R��,,2021/6/6,��,245,97,148
330001,���R��,,2021/6/7,��,610,88,522
330001,���R��,,2021/6/8,��,481,78,403
330001,���R��,,2021/6/9,��,485,80,405
330001,���R��,,2021/6/10,��,467,74,393
330001,���R��,,2021/6/11,��,453,56,397
330001,���R��,,2021/6/12,�y,203,65,138
330001,���R��,,2021/6/13,��,193,69,124
330001,���R��,,2021/6/14,��,550,63,487
330001,���R��,,2021/6/15,��,454,53,401
330001,���R��,,2021/6/16,��,528,64,464
330001,���R��,,2021/6/17,��,550,60,490
330001,���R��,,2021/6/18,��,463,53,410
330001,���R��,,2021/6/19,�y,204,55,149
330001,���R��,,2021/6/20,��,140,50,90
330001,���R��,,2021/6/21,��,581,74,507
330001,���R��,,2021/6/22,��,436,60,376
330001,���R��,,2021/6/23,��,447,56,391
330001,���R��,,2021/6/24,��,447,47,400
330001,���R��,,2021/6/25,��,405,52,353
330001,���R��,,2021/6/26,�y,171,50,121
330001,���R��,,2021/6/27,��,128,55,73
330001,���R��,,2021/6/28,��,531,66,465
330001,���R��,,2021/6/29,��,380,35,345
330001,���R��,,2021/6/30,��,417,46,371
330001,���R��,,2021/7/1,��,446,44,402
330001,���R��,,2021/7/2,��,393,44,349
330001,���R��,,2021/7/3,�y,171,50,121
330001,���R��,,2021/7/4,��,148,63,85
330001,���R��,,2021/7/5,��,445,56,389
330001,���R��,,2021/7/6,��,446,48,398
330001,���R��,,2021/7/7,��,401,35,366
330001,���R��,,2021/7/8,��,449,43,406
330001,���R��,,2021/7/9,��,478,43,435
330001,���R��,,2021/7/10,�y,177,43,134
330001,���R��,,2021/7/11,��,155,64,91
330001,���R��,,2021/7/12,��,508,74,434
330001,���R��,,2021/7/13,��,382,58,324
330001,���R��,,2021/7/14,��,444,56,388
330001,���R��,,2021/7/15,��,398,77,321
330001,���R��,,2021/7/16,��,453,68,385
330001,���R��,,2021/7/17,�y,181,76,105
330001,���R��,,2021/7/18,��,163,64,99
330001,���R��,,2021/7/19,��,535,60,475
330001,���R��,,2021/7/20,��,438,61,377
330001,���R��,,2021/7/21,��,432,71,361
330001,���R��,,2021/7/22,��,355,96,259
330001,���R��,,2021/7/23,��,249,81,168
330001,���R��,,2021/7/24,�y,187,89,98
330001,���R��,,2021/7/25,��,206,100,106
330001,���R��,,2021/7/26,��,562,97,465
330001,���R��,,2021/7/27,��,533,93,440
330001,���R��,,2021/7/28,��,515,88,427
330001,���R��,,2021/7/29,��,517,91,426
330001,���R��,,2021/7/30,��,540,112,428
330001,���R��,,2021/7/31,�y,368,128,240
330001,���R��,,2021/8/1,��,274,123,151
330001,���R��,,2021/8/2,��,786,157,629
330001,���R��,,2021/8/3,��,662,134,528
330001,���R��,,2021/8/4,��,630,141,489
330001,���R��,,2021/8/5,��,608,149,459
330001,���R��,,2021/8/6,��,660,152,508
330001,���R��,,2021/8/7,�y,400,146,254
330001,���R��,,2021/8/8,��,356,148,208
330001,���R��,,2021/8/9,��,510,156,354
330001,���R��,,2021/8/10,��,803,172,631
330001,���R��,,2021/8/11,��,640,151,489
330001,���R��,,2021/8/12,��,834,218,616
330001,���R��,,2021/8/13,��,751,203,548
330001,���R��,,2021/8/14,�y,540,233,307
330001,���R��,,2021/8/15,��,525,228,297
330001,���R��,,2021/8/16,��,782,220,562
330001,���R��,,2021/8/17,��,766,222,544
330001,���R��,,2021/8/18,��,827,272,555
330001,���R��,,2021/8/19,��,878,261,617
330001,���R��,,2021/8/20,��,958,243,715
330001,���R��,,2021/8/21,�y,648,240,408
330001,���R��,,2021/8/22,��,558,221,337
330001,���R��,,2021/8/23,��,944,263,681
330001,���R��,,2021/8/24,��,808,229,579
330001,���R��,,2021/8/25,��,806,234,572
330001,���R��,,2021/8/26,��,922,222,700
330001,���R��,,2021/8/27,��,810,210,600
330001,���R��,,2021/8/28,�y,598,217,381
330001,���R��,,2021/8/29,��,489,204,285
330001,���R��,,2021/8/30,��,1011,186,825
330001,���R��,,2021/8/31,��,861,171,690
330001,���R��,,2021/9/1,��,800,176,624
330001,���R��,,2021/9/2,��,743,164,579
330001,���R��,,2021/9/3,��,738,151,587
330001,���R��,,2021/9/4,�y,451,166,285
330001,���R��,,2021/9/5,��,299,102,197
330001,���R��,,2021/9/6,��,755,137,618
330001,���R��,,2021/9/7,��,728,114,614
330001,���R��,,2021/9/8,��,563,112,451
330001,���R��,,2021/9/9,��,629,122,507
330001,���R��,,2021/9/10,��,599,116,483
330001,���R��,,2021/9/11,�y,322,90,232
330001,���R��,,2021/9/12,��,306,98,208
330001,���R��,,2021/9/13,��,688,98,590
330001,���R��,,2021/9/14,��,569,93,476
330001,���R��,,2021/9/15,��,554,94,460
330001,���R��,,2021/9/16,��,483,56,427
330001,���R��,,2021/9/17,��,471,49,422
330001,���R��,,2021/9/18,�y,288,89,199
330001,���R��,,2021/9/19,��,219,73,146
330001,���R��,,2021/9/20,��,271,89,182
330001,���R��,,2021/9/21,��,640,100,540
330001,���R��,,2021/9/22,��,482,74,408
330001,���R��,,2021/9/23,��,266,75,191
330001,���R��,,2021/9/24,��,530,74,456
330001,���R��,,2021/9/25,�y,180,62,118
330001,���R��,,2021/9/26,��,160,66,94
330001,���R��,,2021/9/27,��,535,67,468
330001,���R��,,2021/9/28,��,423,57,366